Location: Falkner
(32.6954°N, 86.0502°W)
Time: 11:42:03
(UTC+00:00)

Cosmos 2369 - Pass Details

Date: 29 October 2020
Orbit: 841 x 854 km, 71.0° (Epoch: 05 December)

Event Time Altitude Azimuth Distance (km) Brightness Sun altitude
Rises 23:27:55 0° 185° (S) 3,405 7.1 -7.4°
Reaches altitude 10° 23:30:25 10° 181° (S) 2,472 6.3 -8.0°
Maximum altitude 23:35:54 51° 106° (ESE) 1,055 3.9 -9.1°
Drops below altitude 10° 23:41:24 10° 32° (NNE) 2,480 5.8 -10.2°
Sets 23:43:54 0° 27° (NNE) 3,417 6.5 -10.7°
